Home > Weather > Noumea > Past weeks

Flag for New Caledonia Past Weather in Noumea, New Caledonia, New Caledonia — Yesterday and Last 2 Weeks

Now
64 °F

Passing clouds.


Feels Like: 64 °F
Forecast: 68 / 74 °F
Wind: 1 mph from North

Location: La Tontouta Nlle-Caledonie

Current Time: Jun 26, 2016 at 4:51:41 AM

Latest Report: Jun 26, 2016 at 4:30 AM


Visibility: N/A

Pressure: 29.98 "Hg

Humidity: 94%

Dew Point: 63 °F

Location of NoumeaLocation

Past Weather in Noumea — Graph

°F

Noumea Temperature Yesterday

Maximum temperature yesterday: 82 °F (at 1:00 PM)
Minimum temperature yesterday: 63 °F (at 2:00 AM)
Average temperature yesterday: 72 °F

High & Low Weather Summary for the Past Weeks

 TemperatureHumidityPressure
High84 °F (Jun 21, 1:30 PM)100% (Jun 23, 12:30 AM)30.18 "Hg (Jun 23, 12:30 AM)
Low55 °F (Jun 18, 5:30 AM)44% (Jun 13, 12:30 PM)29.89 "Hg (Jun 25, 2:30 PM)
Average70 °F77%30.03 "Hg
* Reported Jun 11 4:00 AM — Jun 26 4:00 AM, Noumea, Weather by CustomWeather, © 2016

Note: Actual official high and low records may vary slightly from our data, if they occured in-between our weather recording intervals... More about our weather records

Advertising

Noumea Weather History for the Previous 24 Hours

Scroll right to see more
 ConditionsComfort  
Time TempWeatherWind HumidityBarometerVisibility
4:00 AM
Sun, Jun 26
66 °FFog.No wind100%29.95 "Hg1 mi
3:30 AM68 °FLight fog.2 mph94%29.95 "Hg2 mi
3:00 AM68 °FPassing clouds.2 mph94%29.98 "Hg4 mi
2:30 AM68 °FPartly cloudy.No wind94%29.98 "HgN/A
2:00 AM68 °FOvercast.2 mph94%29.98 "Hg6 mi
1:30 AM68 °FFog.1 mph94%29.98 "Hg3 mi
1:00 AM68 °FPassing clouds.No wind94%29.98 "HgN/A
12:30 AM70 °FPartly cloudy.3 mph94%29.98 "HgN/A
12:00 AM70 °FOvercast.No wind94%29.98 "HgN/A
11:30 PM
Sat, Jun 25
70 °FOvercast.No wind94%29.98 "HgN/A
11:00 PM70 °FPassing clouds.No wind94%29.98 "HgN/A
10:30 PM70 °FPassing clouds.2 mph94%29.98 "HgN/A
10:00 PM70 °FPartly cloudy.No wind94%29.98 "HgN/A
9:30 PM70 °FLight rain. Mostly cloudy.2 mph94%29.98 "HgN/A
9:00 PM70 °FPartly cloudy.3 mph88%29.98 "HgN/A
8:30 PM72 °FPartly cloudy.1 mph83%29.98 "HgN/A
8:00 PM72 °FPassing clouds.2 mph83%29.98 "HgN/A
7:30 PM73 °FPassing clouds.No wind78%29.98 "HgN/A
7:00 PM73 °FPassing clouds.No wind78%29.98 "HgN/A
6:30 PM73 °FPassing clouds.No wind78%29.95 "HgN/A
6:00 PM75 °FPassing clouds.1 mph74%29.95 "HgN/A
5:30 PM75 °FPassing clouds.3 mph74%29.95 "HgN/A
5:00 PM77 °FPassing clouds.6 mph65%29.92 "HgN/A
4:30 PM79 °FPassing clouds.6 mph61%29.92 "HgN/A
4:00 PM81 °FScattered clouds.6 mph58%29.92 "HgN/A
3:30 PM81 °FPartly sunny.7 mph58%29.92 "HgN/A
3:00 PM81 °FOvercast.10 mph54%29.89 "HgN/A
2:30 PM81 °FPartly sunny.8 mph54%29.89 "HgN/A
2:00 PM81 °FPartly sunny.8 mph54%29.92 "HgN/A
1:30 PM82 °FPartly sunny.9 mph58%29.92 "HgN/A
1:00 PM82 °FPassing clouds.8 mph55%29.92 "HgN/A
12:30 PM81 °FPartly sunny.7 mph58%29.95 "HgN/A
12:00 PM81 °FOvercast.9 mph62%29.95 "HgN/A
11:30 AM81 °FScattered clouds.9 mph58%29.95 "HgN/A
11:00 AM81 °FPassing clouds.8 mph62%29.95 "HgN/A
10:30 AM81 °FPassing clouds.5 mph58%29.98 "HgN/A
10:00 AM77 °FSunny.3 mph69%29.98 "Hg10 mi
9:30 AM73 °FPassing clouds.No wind78%29.98 "HgN/A
9:00 AM72 °FPartly sunny.No wind83%29.98 "HgN/A
8:30 AM72 °FOvercast.No wind83%29.98 "HgN/A
8:00 AM70 °FOvercast.No wind88%29.98 "HgN/A
7:30 AM68 °FOvercast.No wind94%29.98 "HgN/A
7:00 AM66 °FOvercast.No wind94%29.98 "Hg6 mi
6:30 AM66 °FOvercast.1 mph94%29.95 "HgN/A
6:00 AM68 °FOvercast.No wind88%29.95 "HgN/A
5:30 AM66 °FOvercast.No wind94%29.95 "HgN/A
5:00 AM66 °FOvercast.1 mph94%29.95 "HgN/A
4:30 AM66 °FOvercast.No wind94%29.92 "Hg6 mi
4:00 AM66 °FOvercast.No wind94%29.92 "Hg6 mi
Weather by CustomWeather, © 2016

See weather overviewHow to use our weather pages